alt.binaries.pictures.eroticia.teen.fuck Group List
Num Subject Author Time
71 Unless she is not fine? 0.jpg 199238 290-files 55MB "Unless.nzb" Kla.Win 2016/09/05 07:26
70 sexy young pussy!!!___Cindy 001.jpg 118682 57-files 9MB "sexy.nzb" Puptrck150 2016/09/05 06:03
69 The Best teens 0.jpg 183170 326-files 82MB "The.nzb" match.2 2016/09/03 21:29
68 Tiny Sweet Hard core series - '1' of '90' 90-files 26MB "Tiny.nzb" ghunt8153 2016/09/03 08:16
67 for you from my collection___Nastya 0.jpg 374431 131-files 50MB "for.nzb" seven779 2016/09/02 10:19
66 She's just started in 18 001.jpg 75970 100-files 14MB "She.nzb" ofi8ab 2016/09/02 07:36
65 they are very young to be such attractive? 0.jpg 237152 181-files 42MB "they.nzb" wpickel 2016/08/31 15:59
64 Bashful Very Young Girls...! 001.jpg 113887 48-files 8MB "Bashful.nzb" wpickel 2016/08/31 04:09
63 HARDCORE Video&Pics 0.jpg 143462 4-files 739KB "HARDCORE.nzb" acyalum87 2016/08/23 02:56
62 Bashful Very Young Girls 2.jpg 103169 4-files 756KB "Bashful.nzb" aacevedopr 2016/08/23 01:49
61 My colection_Alison 1.jpg 145087 3-files 639KB "colection_Al.nzb" kornis01 2016/08/22 13:48
60 My HOT Marbella 0.jpg 212136 100-files 24MB "HOT.nzb" dazcaff 2016/08/20 18:48
59 beautiful young girls always in the price - '1' of '74' 74-files 20MB "beautiful.nzb" k2mister 2016/08/19 01:50
58 Look at my sister Geena 002.jpg 115536 21-files 3MB "Look.nzb" wpickel 2016/08/19 01:20
57 Her virginity is still whole?... And for a long time? 0.jpg 111158 109-files 21MB "Her.nzb" seven779 2016/08/18 02:55
56 Irene looking good 26.jpg 89689 224-files 45MB "Irene.nzb" chaosdefined 2016/08/17 09:53
55 Bashful Very Young Girls...! 001.jpg 69493 55-files 6MB "Bashful.nzb" t.e.dalton 2016/08/15 22:02
54 Beautiful Young girls always in the price 28.jpg 119244 229-files 43MB "Beautiful.nzb" dazcaff 2016/08/15 08:31
53 She took it like a good little girl! 1.jpg 102114 502-files 94MB "She.nzb" merrow 2016/08/14 15:19
52 She screams and moans as she's getting slam fucked doggie style 001.jpg 81187 27-files 3MB "She.nzb" sweet_slits 2016/08/14 00:35
51 i look a great videos___Veronica 001.jpg 102740 63-files 8MB "look.nzb" t.e.dalton 2016/08/13 07:00
50 Little Cathy so temptin... 1.jpg 156749 278-files 50MB "Little.nzb" FreezerNut 2016/08/12 21:01
49 Young....Debby 1.jpg 219678 261-files 59MB "Young....Deb.nzb" merrow 2016/08/12 05:37
48 Sweet Young tight girl... 1.jpg 83282 304-files 55MB "Sweet.nzb" bert.dewey 2016/08/10 21:17
47 this cute girl___Nata 3.jpg 145552 193-files 42MB "this.nzb" s_w_lange 2016/08/10 05:32
46 As you will see, she is a real redhead - '1' of '55' 55-files 20MB "you.nzb" match.2 2016/08/09 05:44
45 Look at this__Andrea 3.jpg 205663 369-files 76MB "Look.nzb" match.2 2016/08/08 09:47
44 Tiny Sweet Uncensored & Exclusive Content - '13' of '100' 100-files 27MB "Tiny.nzb" gellebn 2016/08/08 01:28
43 sexy little nymph - '9' of '100' 100-files 26MB "sexy.nzb" match.2 2016/08/07 07:58
42 Little angels..Tyra 3.jpg 154952 372-files 88MB "Little.nzb" match.2 2016/08/07 00:06
41 Never seen her before? - '14' of '69' 69-files 13MB "Never.nzb" wpickel 2016/08/06 10:55
40 Young erotic Models 1.jpg 129924 255-files 46MB "Young.nzb" ct_web 2016/07/15 18:52
39 Found a Hot Spot 0.jpg 108470 37-files 6MB "Found.nzb" Puptrck150 2016/07/12 18:58
38 Fantasy Fest Pictures 1.jpg 149816 599-files 121MB "Fantasy.nzb" FreezerNut 2016/07/12 09:13
37 Hard core series 1.jpg 133326 438-files 84MB "Hard.nzb" chaosdefined 2016/07/09 05:55
36 Extreme___Lena - '1' of '50' 50-files 8MB "Extreme___Le.nzb" merrow 2016/07/08 00:58
35 >>> Nude Sluts In Dutch Disco exclusive 001.jpg 103161 70-files 11MB "Nude.nzb" sweet_slits 2016/07/07 19:55
34 only young beautiful ladies___Bridget 1.jpg 90083 82-files 12MB "only.nzb" burbanok 2016/07/07 09:21
33 Angel porno 001.jpg 101459 50-files 8MB "Angel.nzb" sweet_slits 2016/07/06 08:16
32 Young, Fresh, Horny... 3.jpg 180352 232-files 48MB "Young.nzb" t.e.dalton 2016/07/05 16:34
31 Young pre teens - '27' of '80' 80-files 22MB "Young.nzb" bert.dewey 2016/07/05 03:13
30 sexy young pussy_Claudina 1.jpg 116440 310-files 60MB "sexy.nzb" bassemasaad 2016/07/04 22:32
29 School Sex Collection - '1' of '33' 33-files 5MB "School.nzb" wpickel 2016/07/04 21:57
28 beautiful young girls always in the price - '12' of '80' 80-files 22MB "beautiful.nzb" moomooman 2016/07/04 03:37
27 I love to cheat on my husband 001.jpg 91016 33-files 5MB "love.nzb" merrow 2016/07/02 16:16
26 Little angels..Yulia 1.jpg 191435 309-files 64MB "Little.nzb" roquedan 2016/06/30 16:08
25 Little tiny pussies banged 002.jpg 69758 67-files 11MB "Little.nzb" lemessag 2016/06/30 11:56
24 My cool collection supervery sweet girls - '2' of '71' 71-files 21MB "cool.nzb" moomooman 2016/06/29 23:00
23 She took it like a good little girl! 2.jpg 167585 187-files 41MB "She.nzb" aacevedopr 2016/06/29 02:24
22 Best teens archive... - '1' of '45' 45-files 9MB "Best.nzb" Puptrck150 2016/06/27 20:18
21 She screams and moans as she's getting slam fucked doggie style - '8' of '45' 125-files 39MB "She.nzb" twood 2016/06/25 16:37
20 There is also a great cumshot of the gooey stuff dripping from her snatch. - '1' of '78' 78-files 16MB "There.nzb" dazcaff 2016/06/25 12:59
19 New Faces - New Collection 1.jpg 143474 482-files 112MB "New.nzb" dazcaff 2016/06/25 04:27
18 Red Hot Sweeties 001.jpg 112506 45-files 9MB "Red.nzb" Kla.Win 2016/06/23 09:38
17 Stepanka - I love her little tits and tight pussy ; step_littletits-fuck1.mp4 18-files 83MB "step_littletits-fuck1.mp4.n .. grimassh 2016/06/23 08:00
16 You Like to Look it? So Look 007.jpg 118976 21-files 3MB "You.nzb" sweet.Lisa 2016/06/22 11:08
15 Young tight girl... - '1' of '69' 69-files 13MB "Young.nzb" sweet.Lisa 2016/06/20 12:58
14 More exclusive models 002.jpg 98918 27-files 3MB "More.nzb" sweet.slits 2016/06/17 22:12
13 Orgasm for young cunny ; cunny_little-orgasm.mp4 1-file 40MB "cunny_little-orgasm.mp4.nzb" kingT 2016/06/02 17:14
12 Orgasm for young cunny ; org_s15.jpg 12-files 3MB "Orgasm.nzb" kingT 2016/06/02 13:21
11 Parents never know what daughters do in school ; new_schoolgirl_Deb.mp4 1-file 28MB "new_schoolgirl_Deb.mp4.nzb" Gregen 2016/05/01 00:08
10 Parents never know what daughters do in school ; schoolgirl_Lia_apple.mp4 1-file 31MB "schoolgirl_Lia_apple.mp4.nzb" Gregen 2016/05/01 00:12
9 Parents never know what daughters do in school ; allen_schoolgirl_fuck.mp4 1-file 18MB "allen_schoolgirl_fuck.mp4.nzb" Gregen 2016/05/01 00:02
8 b/g romantic fuck with young girlies ; five_babies_for_one_man2.mp4 1-file 50MB "five_babies_for_one_man2.mp4.nzb" osaka 2016/04/01 02:17
7 b/g romantic fuck with young girlies ; five_babies_for_one_man3.mp4 1-file 46MB "five_babies_for_one_man3.mp4.nzb" osaka 2016/03/31 12:32
6 Selfie & Amateur Homemade Teens Pictures - 6877325.jpg 202-files 23MB "Selfie.nzb" Gilbert Lewe .. 2016/02/28 10:41
5 Small pussies get good fuck ; small_pussy_Cyr.mp4 1-file 26MB "small_pussy_Cyr.mp4.nzb" uroboros 2016/02/26 09:54
4 Juicy hardcore fantasies - TD7917.jpg 189-files 46MB "Juicy.nzb" Gawain Bierb .. 2016/01/23 02:27
3 find more at... 001.jpg 270289 154 files 51 MB "find.nzb" <author> 2014/09/21 04:02
2 You Wish More? 001.jpg 79357 211 files 25 MB "You.nzb" <author> 2014/08/23 10:50
1 Uncensored & Exclusive Content 001.jpg 115134 100 files 17 MB "Uncensored.nzb" <author> 2014/07/02 10:08
First Prev. Next Last Page
of totaling 1 page(s)
  Refresh


  Language: